Location: Unspecified
(0.0000°N, 0.0000°E)
Time: 20:58:54
(UTC+02:00)

Iridium 39 - Visible Passes

Search period start: 16 April 2014 00:00
Search period end: 26 April 2014 00:00
Orbit: 776 x 779 km, 86.4° (Epoch: 16 April)

Date Brightness Start Highest point End Pass type
(mag) Time Alt. Az. Time Alt. Az. Time Alt. Az.
16 Apr 8.2 21:47:55 13° NNE 21:47:55 13° NNE 21:48:26 10° NNE visible
17 Apr 7.9 21:13:05 14° NE 21:13:05 14° NE 21:13:56 10° NE visible
17 Apr 8.8 22:53:26 13° NW 22:53:26 13° NW 22:54:09 10° NW visible
18 Apr 7.3 22:18:16 37° NW 22:18:16 37° NW 22:21:52 10° NNW visible
19 Apr 5.8 21:42:28 59° SSE 21:43:29 81° E 21:48:40 10° N visible
20 Apr 6.5 21:05:17 10° SSE 21:10:01 36° E 21:14:44 10° NNE visible
20 Apr 8.9 22:48:25 10° WSW 22:50:25 12° W 22:52:26 10° WNW visible
21 Apr 7.5 20:33:25 10° SE 20:36:33 16° E 20:39:41 10° NE visible
21 Apr 7.9 22:12:36 10° SSW 22:16:58 28° W 22:21:21 10° NNW visible
22 Apr 6.4 21:38:23 10° S 21:43:31 62° W 21:48:38 10° N visible
23 Apr 6.0 21:04:56 10° SSE 21:10:04 59° E 21:15:09 10° N visible
24 Apr 6.9 20:32:18 10° SE 20:36:36 26° E 20:40:52 10° NE visible
24 Apr 8.6 22:13:41 10° SW 22:17:00 17° W 22:20:20 10° NW visible
25 Apr 7.4 21:38:46 10° SSW 21:43:33 38° W 21:48:20 10° NNW visible
